Flag for Canada Weather past 2 weeks in Brampton, Ontario, Canada

Now
64 °F

Passing clouds.


Feels Like: 64 °F
Forecast: 58 / 72 °F
Wind: 10 mph from North

Location: Toronto Pearson International Airport

Current Time: Jul 23, 2014 at 10:36:11 PM

Latest Report: Jul 23, 2014 at 10:00 PM


Visibility: 15 mi

Pressure: 30.01 "Hg

Humidity: 64%

Dew point: 52 °F

Location of BramptonLocation

Historic Weather in Brampton — Graph

°F

Brampton temperature yesterday

Maximum temperature yesterday: 86 °F (at 7:00 PM)
Minimum temperature yesterday: 66 °F (at 5:00 AM)
Average temperature yesterday: 75 °F

Past Weeks' High & Low Weather Summary

 TemperatureHumidityPressure
High86 °F (Jul 22, 7:00 PM)100% (Jul 19, 9:00 PM)30.25 "Hg (Jul 19, 9:00 PM)
Low52 °F (Jul 17, 5:00 AM)29% (Jul 18, 6:00 PM)29.56 "Hg (Jul 8, 8:00 PM)
Average68 °F67%30.00 "Hg
* Reported Jul 8 8:00 PM — Jul 23 8:00 PM, Brampton, Weather by CustomWeather, © 2014

Note: Actual official high and low records may vary slightly from our data, if they occured in-between our weather recording intervals... More about our weather records

Advertising

Brampton weather history for previous 24 hours

 ConditionsComfort  
Time TempWeatherWind HumidityBarometerVisibility
8:00 PM
Jul 23
66 °FScattered clouds.13 mph68%29.99 "Hg15 mi
7:00 PM68 °FPartly sunny.16 mph64%29.98 "Hg15 mi
6:00 PM68 °FMostly cloudy.20 mph64%29.97 "Hg15 mi
5:00 PM68 °FOvercast.20 mph64%29.96 "Hg15 mi
4:00 PM70 °FPartly sunny.20 mph64%29.96 "Hg15 mi
3:00 PM70 °FPartly sunny.20 mph64%29.96 "Hg15 mi
2:00 PM68 °FPartly sunny.17 mph69%29.95 "Hg15 mi
1:00 PM70 °FPartly sunny.20 mph64%29.93 "Hg15 mi
12:00 PM72 °FPartly sunny.14 mph65%29.92 "Hg15 mi
11:00 AM68 °FOvercast.15 mph73%29.92 "Hg15 mi
10:00 AM68 °FOvercast.15 mph78%29.89 "Hg15 mi
9:00 AM70 °FPartly sunny.22 mph73%29.87 "Hg15 mi
8:00 AM73 °FMostly cloudy.14 mph78%29.86 "Hg15 mi
7:00 AM75 °FOvercast.8 mph83%29.85 "Hg8 mi
6:00 AM73 °FOvercast.8 mph89%29.86 "Hg10 mi
5:00 AM75 °FPartly cloudy.8 mph83%29.82 "Hg15 mi
4:00 AM75 °FOvercast.13 mph83%29.83 "Hg15 mi
1:00 AM77 °FPartly cloudy.12 mph69%29.90 "Hg15 mi
12:00 AM79 °FThunderstorms. Partly cloudy.6 mph65%29.92 "Hg10 mi
11:00 PM
Jul 22
79 °FPassing clouds.13 mph65%29.91 "Hg15 mi
10:00 PM81 °FPassing clouds.13 mph62%29.92 "Hg15 mi
Weather by CustomWeather, © 2014

See weather overviewHow to use our weather pages